CW6617 Weather Reports


time (UTC)temp
C
wind
direction
speed
KPH
gust
KPH
rain 1hr
cm
rain 24hr
cm
rain mn
cm
humidity
%
barometer
mb
20211208123206 7 206 4.8 19.3 0.00 0.71 0.00 80 991.7
20211208121706 6 197 0.0 12.9 0.00 0.71 0.00 80 991.4
20211208121206 6 247 4.8 16.1 0.00 0.74 0.00 80 991.4
20211208120706 6 219 6.4 19.3 0.00 0.74 0.00 80 991.3
20211208120206 6 234 8.0 19.3 0.00 0.74 0.00 80 991.2
20211208114706 6 213 1.6 11.3 0.00 0.76 0.00 80 991.0
20211208114206 6 193 1.6 11.3 0.00 0.76 0.00 80 990.9
20211208113707 6 246 8.0 16.1 0.00 0.76 0.00 80 990.8
20211208113206 6 203 4.8 19.3 0.00 0.79 0.00 80 990.8
20211208111706 6 208 4.8 16.1 0.00 0.79 0.00 80 990.8
20211208111206 6 203 1.6 9.7 0.00 0.79 0.00 80 990.7
20211208110706 6 229 3.2 22.5 0.00 0.79 0.00 80 990.6
20211208110207 6 190 1.6 14.5 0.00 0.79 0.00 80 990.6
20211208104706 6 234 1.6 14.5 0.00 0.81 0.00 80 990.5
20211208104206 6 196 4.8 22.5 0.00 0.81 0.00 80 990.4
20211208103705 6 204 4.8 20.9 0.00 0.81 0.00 80 990.3
20211208103206 6 238 0.0 16.1 0.00 0.81 0.00 81 990.2
20211208101706 6 188 1.6 16.1 0.00 0.81 0.00 81 989.9
20211208101206 6 208 3.2 19.3 0.00 0.81 0.00 81 990.0
20211208100706 5 204 1.6 16.1 0.00 0.81 0.00 81 989.8
20211208100206 5 189 8.0 33.8 0.00 0.81 0.00 81 989.8
20211208094705 5 202 4.8 32.2 0.00 0.81 0.00 81 989.7
20211208094205 5 220 0.0 1.6 0.00 0.81 0.00 81 989.7
20211208093706 5 192 4.8 16.1 0.00 0.81 0.00 82 989.6
20211208093206 5 198 6.4 20.9 0.00 0.81 0.00 82 989.4
20211208091705 5 203 0.0 9.7 0.00 0.81 0.00 81 989.4
20211208091206 5 217 3.2 19.3 0.00 0.81 0.00 81 989.2
20211208090706 5 202 1.6 14.5 0.00 0.81 0.00 82 989.2
20211208090205 5 200 0.0 25.7 0.00 0.81 0.00 82 989.3
20211208084706 5 185 0.0 24.1 0.00 0.81 0.00 83 989.2
20211208084206 5 188 0.0 1.6 0.00 0.81 0.00 83 989.0
20211208083706 5 192 4.8 19.3 0.00 0.81 0.00 83 988.9
20211208083206 5 193 4.8 22.5 0.00 0.81 0.00 84 988.8
20211208081705 5 198 11.3 22.5 0.00 0.81 0.00 84 988.9
20211208081206 5 195 1.6 19.3 0.00 0.81 0.00 84 988.8
20211208080706 5 197 3.2 16.1 0.00 0.81 0.00 84 988.8
20211208080205 5 198 9.7 20.9 0.00 0.81 0.00 84 988.8
20211208074706 4 195 1.6 14.5 0.00 0.81 0.00 85 988.6
20211208074205 4 194 11.3 24.1 0.00 0.81 0.00 85 988.4
20211208073706 4 188 1.6 20.9 0.00 0.81 0.00 85 988.3
20211208073205 4 190 11.3 22.5 0.00 0.81 0.00 84 988.3
20211208071706 4 193 8.0 19.3 0.00 0.81 0.00 85 988.1
20211208071206 4 191 4.8 24.1 0.00 0.81 0.00 85 988.0
20211208070706 4 180 3.2 20.9 0.00 0.81 0.00 85 987.9
20211208070206 4 183 0.0 20.9 0.00 0.81 0.00 85 987.8
20211208064706 4 185 0.0 0.0 0.00 0.81 0.00 85 987.8
20211208064206 4 191 0.0 14.5 0.00 0.81 0.00 85 987.8
20211208063705 4 192 11.3 19.3 0.00 0.81 0.00 85 987.8
20211208063205 4 185 0.0 16.1 0.00 0.81 0.00 85 987.7
20211208061706 4 222 9.7 11.3 0.00 0.81 0.00 85 987.5
20211208061206 5 178 11.3 11.3 0.00 0.81 0.00 85 987.4
20211208060705 5 185 12.9 20.9 0.00 0.81 0.00 85 987.2
20211208060206 5 185 11.3 19.3 0.00 0.81 0.00 85 987.1
20211208054706 5 193 6.4 22.5 0.00 0.81 0.00 84 986.9
20211208054206 5 192 0.0 12.9 0.00 0.81 0.00 84 986.7
20211208053705 5 190 0.0 20.9 0.00 0.81 0.00 84 986.7
20211208053205 5 194 9.7 20.9 0.00 0.81 0.00 84 986.7
20211208051705 5 205 0.0 0.0 0.00 0.81 0.00 84 986.5
20211208051206 5 194 9.7 22.5 0.00 0.81 0.00 84 986.5
20211208050706 5 188 1.6 19.3 0.00 0.81 0.00 84 986.4
20211208050205 5 203 8.0 22.5 0.00 0.81 0.00 84 986.5
20211208044705 5 201 0.0 1.6 0.00 0.81 0.00 84 986.4
20211208044206 5 201 6.4 20.9 0.00 0.81 0.00 84 986.2
20211208043706 5 198 0.0 4.8 0.00 0.81 0.00 84 986.1
20211208043206 5 203 8.0 24.1 0.00 0.81 0.00 85 986.1
20211208041706 5 189 0.0 14.5 0.00 0.81 0.00 84 986.3
20211208041205 5 189 8.0 20.9 0.00 0.81 0.00 84 986.3
20211208040706 5 193 14.5 20.9 0.00 0.81 0.00 85 986.2
20211208040206 5 196 3.2 22.5 0.00 0.81 0.00 85 986.0
20211208034706 5 195 1.6 16.1 0.00 0.81 0.00 85 985.6
20211208034205 5 185 0.0 14.5 0.00 0.81 0.00 85 985.7
20211208033705 5 188 9.7 19.3 0.00 0.81 0.00 86 985.7
20211208033206 5 198 3.2 22.5 0.00 0.81 0.00 86 985.4
20211208031706 5 187 1.6 19.3 0.00 0.81 0.00 86 985.4
20211208031206 5 195 0.0 16.1 0.00 0.81 0.00 86 985.4
20211208030706 5 196 0.0 16.1 0.00 0.81 0.00 87 985.5
20211208030206 5 192 1.6 20.9 0.00 0.81 0.00 86 985.4
20211208024706 5 196 4.8 19.3 0.00 0.81 0.00 86 985.4
20211208024206 5 194 0.0 9.7 0.00 0.81 0.00 86 985.3
20211208023706 5 194 0.0 1.6 0.00 0.81 0.00 85 985.0
20211208023206 5 188 4.8 22.5 0.00 0.81 0.00 85 985.0
20211208021706 5 199 0.0 20.9 0.00 0.81 0.00 85 985.2
20211208021206 5 193 0.0 20.9 0.00 0.81 0.00 85 985.3
20211208020706 5 185 0.0 16.1 0.00 0.81 0.00 84 985.3
20211208020205 5 199 1.6 32.2 0.00 0.81 0.00 85 985.3
20211208014705 5 191 14.5 22.5 0.00 0.81 0.00 84 985.0
20211208014206 5 187 11.3 24.1 0.00 0.81 0.00 84 985.1
20211208013705 5 217 9.7 20.9 0.00 0.81 0.00 84 985.0
20211208013206 5 197 11.3 24.1 0.00 0.81 0.00 85 985.0
20211208011706 5 185 8.0 16.1 0.00 0.81 0.00 85 984.8
20211208011206 5 189 4.8 20.9 0.00 0.81 0.00 85 984.6
20211208010706 5 194 1.6 16.1 0.00 0.81 0.00 86 984.7
20211208010206 5 195 3.2 22.5 0.00 0.81 0.00 86 984.5
20211208004706 5 187 0.0 19.3 0.00 0.81 0.00 87 984.6
20211208004206 5 188 3.2 19.3 0.00 0.81 0.00 87 984.9
20211208003706 5 197 4.8 20.9 0.00 0.81 0.00 87 984.9
20211208003205 5 179 9.7 19.3 0.00 0.81 0.00 87 984.8
20211208001706 5 189 1.6 19.3 0.00 0.81 0.00 88 984.8
20211208001205 5 193 0.0 12.9 0.00 0.81 0.00 88 984.9
20211208000706 5 193 11.3 29.0 0.00 0.81 0.00 88 985.0
20211208000206 5 190 0.0 20.9 0.00 0.81 0.00 88 985.0
20211207234706 5 188 0.0 0.0 0.00 0.81 0.81 88 985.0
20211207234206 5 185 0.0 16.1 0.00 0.81 0.81 88 985.0
20211207233706 5 176 1.6 19.3 0.00 0.81 0.81 88 985.0
20211207233206 5 190 0.0 29.0 0.00 0.81 0.81 88 985.2
20211207231705 5 172 0.0 20.9 0.00 0.81 0.81 87 985.4
20211207231206 5 193 8.0 20.9 0.00 0.81 0.81 87 985.4
20211207230705 5 185 0.0 25.7 0.00 0.81 0.81 87 985.2
20211207230206 4 191 6.4 24.1 0.00 0.81 0.81 88 985.2
20211207224706 4 200 3.2 20.9 0.00 0.81 0.81 89 984.9
20211207224205 4 191 11.3 20.9 0.00 0.81 0.81 89 984.9
20211207223705 4 189 9.7 20.9 0.00 0.81 0.81 89 984.6
20211207223206 4 179 11.3 20.9 0.00 0.81 0.81 89 984.6
20211207221706 5 177 0.0 1.6 0.00 0.81 0.81 89 984.5
20211207221206 5 191 11.3 20.9 0.00 0.81 0.81 90 984.6
20211207220706 5 168 0.0 16.1 0.00 0.81 0.81 90 984.5
20211207220206 5 183 9.7 22.5 0.00 0.81 0.81 90 984.5
20211207214706 5 190 1.6 20.9 0.00 0.81 0.81 91 984.8
20211207214205 5 193 14.5 19.3 0.00 0.81 0.81 91 985.0
20211207213706 5 193 8.0 19.3 0.00 0.81 0.81 91 985.2
20211207213206 5 192 11.3 20.9 0.00 0.81 0.81 91 985.2
20211207211706 5 195 9.7 20.9 0.00 0.81 0.81 92 985.4
20211207211205 5 190 4.8 19.3 0.00 0.81 0.81 93 985.4
20211207210705 5 184 11.3 24.1 0.00 0.81 0.81 93 985.5
20211207210206 5 185 11.3 20.9 0.00 0.81 0.81 93 985.6
20211207204706 5 193 11.3 19.3 0.00 0.81 0.81 94 985.8
20211207204206 5 193 1.6 12.9 0.00 0.81 0.81 94 985.8
20211207203706 5 199 0.0 1.6 0.00 0.81 0.81 94 985.7
20211207203205 5 189 0.0 19.3 0.00 0.81 0.81 94 985.6
20211207201705 5 194 9.7 19.3 0.00 0.81 0.81 95 985.6
20211207201206 5 192 11.3 22.5 0.00 0.81 0.81 95 985.8
20211207200706 5 193 8.0 16.1 0.00 0.81 0.81 95 985.7
20211207200206 5 195 9.7 20.9 0.00 0.81 0.81 95 985.7
20211207194706 5 191 8.0 19.3 0.00 0.81 0.81 96 986.0
20211207194206 5 192 8.0 19.3 0.00 0.81 0.81 96 985.9
20211207193705 5 196 11.3 20.9 0.00 0.81 0.81 96 985.9
20211207193206 5 197 11.3 19.3 0.00 0.81 0.81 96 986.0
20211207191706 5 196 8.0 11.3 0.00 0.81 0.81 96 986.1
20211207191206 5 190 4.8 12.9 0.00 0.81 0.81 96 986.2
20211207190706 5 206 4.8 14.5 0.00 0.81 0.81 96 986.1
20211207190206 5 199 8.0 20.9 0.00 0.81 0.81 96 986.1
20211207184705 5 169 11.3 20.9 0.00 0.81 0.81 96 986.0
20211207184206 5 168 9.7 16.1 0.00 0.81 0.81 96 986.1
20211207183706 5 177 8.0 12.9 0.00 0.81 0.81 96 986.1
20211207183206 5 174 9.7 20.9 0.00 0.81 0.81 96 986.2
20211207181706 5 171 9.7 16.1 0.00 0.81 0.81 96 986.2
20211207181205 5 156 8.0 16.1 0.00 0.81 0.81 96 986.3
20211207180706 5 166 11.3 19.3 0.00 0.81 0.81 96 986.3
20211207180205 5 161 11.3 19.3 0.00 0.81 0.81 96 986.2
20211207174706 5 167 9.7 19.3 0.00 0.81 0.81 96 986.5
20211207174206 5 163 9.7 16.1 0.00 0.81 0.81 96 986.4
20211207173705 5 172 9.7 14.5 0.00 0.81 0.81 96 986.4
20211207173205 5 168 4.8 14.5 0.00 0.81 0.81 96 986.5
20211207171705 5 163 8.0 16.1 0.00 0.81 0.81 96 986.2
20211207171205 5 171 4.8 9.7 0.00 0.81 0.81 96 986.3
20211207170706 5 169 1.6 8.0 0.00 0.81 0.81 96 986.5
20211207170205 5 169 4.8 12.9 0.00 0.81 0.81 96 987.0
20211207164710 5 170 6.4 11.3 0.03 0.81 0.81 96 986.6
20211207164206 5 171 0.0 0.0 0.03 0.81 0.81 96 986.7
20211207163706 5 171 3.2 11.3 0.03 0.84 0.81 96 986.7
20211207163206 5 170 8.0 11.3 0.05 0.84 0.81 96 986.7
20211207161706 5 173 3.2 9.7 0.15 0.84 0.81 96 986.7
20211207161206 5 174 3.2 4.8 0.18 0.84 0.81 95 986.7
20211207160706 5 176 0.0 1.6 0.23 0.84 0.81 95 987.0
20211207160207 5 177 3.2 14.5 0.43 0.84 0.81 95 987.3
20211207154706 5 168 8.0 16.1 0.53 0.81 0.79 95 987.6
20211207154206 5 207 1.6 8.0 0.56 0.81 0.79 95 987.6
20211207153706 5 181 0.0 0.0 0.56 0.81 0.79 95 988.0
20211207153206 5 190 0.0 1.6 0.53 0.79 0.79 95 988.2
20211207151705 5 168 11.3 22.5 0.46 0.71 0.69 94 988.3
20211207151205 5 169 6.4 22.5 0.43 0.66 0.64 93 988.4
20211207150706 5 179 11.3 20.9 0.38 0.61 0.58 92 988.7
20211207150206 6 198 11.3 33.8 0.23 0.43 0.41 94 989.0
20211207144705 7 167 4.8 37.0 0.08 0.28 0.25 96 987.7
20211207144205 7 164 4.8 32.2 0.05 0.25 0.23 96 987.8
20211207143706 7 169 3.2 29.0 0.05 0.25 0.23 95 987.8
20211207143206 7 168 3.2 32.2 0.05 0.25 0.23 95 987.8
20211207141705 7 162 12.9 46.7 0.05 0.23 0.23 95 988.4
20211207141206 7 163 4.8 29.0 0.05 0.23 0.20 95 988.7
20211207140706 7 172 4.8 41.8 0.05 0.23 0.20 95 988.9
20211207140205 7 164 8.0 45.1 0.05 0.20 0.18 95 989.0
20211207134706 7 159 14.5 38.6 0.05 0.20 0.18 95 989.6
20211207134206 7 171 8.0 37.0 0.05 0.20 0.18 95 989.8
20211207133706 7 174 11.3 40.2 0.05 0.20 0.18 95 989.8
20211207133206 7 173 6.4 48.3 0.05 0.20 0.18 95 990.1
20211207131706 7 169 19.3 51.5 0.05 0.18 0.15 95 990.9
20211207131206 7 175 11.3 45.1 0.05 0.15 0.15 95 991.4
20211207130706 7 171 8.0 40.2 0.05 0.15 0.15 95 991.6
20211207130206 7 185 8.0 45.1 0.05 0.15 0.15 95 991.7
20211207124705 7 168 6.4 41.8 0.05 0.15 0.13 95 992.4
20211207124206 7 170 3.2 33.8 0.05 0.15 0.13 96 992.6
20211207123706 7 169 4.8 33.8 0.05 0.15 0.13 96 992.9